Starlink 5062

operational
NORAD ID: 55637 Int'l Des: 2023-021 Owner: SPXS Country: US Constellation: starlink
LEOCIRCULAR

关于 Starlink 5062

正在加载描述...

实时位置

正在加载3D地球...

即将过境

高度历史

Altitude vs Time

uPlot chart will show altitude changes over time

两行轨道根数

1 55637U 23021K 25351.34133353 .00001064 00000-0 96982-4 0 9994
2 55637 70.0003 32.1989 0003352 268.8424 91.2351 14.98319856156453
Epoch: Dec 17, 2025 • Age: 6 hours

当前状态

高度 592.1 km
速度 7.56 km/s
星下点 -58.88°S, 53.61°E
发射日期 Feb 17, 2023
运行时间 2.8 years
类型 internet

技术详情

分类 Payload
质量 305.00 kg
干质量 290.00 kg
总质量 305.00 kg
长度 0.20 m
直径 2.80 m
跨度 9.00 m
形状 Box + pan
制造商 SPXS
平台类型 Starlink
阶段状态 In Orbit
所有者/国家 SPXS/US

大型星座

Loading constellations...